Location: Unspecified
(0.0000°N, 0.0000°E)
Time: 18:49:20
(UTC+00:00)

SR - Pass Details

Date: 23 November 2019
Orbit: 573 x 882 km, 66.7° (Epoch: 06 December)

Event Time Altitude Azimuth Distance (km) Brightness Sun altitude
Rises 11:58:14 0° 195° (SSW) 2,903 ? 69.5°
Reaches altitude 10° 12:00:25 10° 193° (SSW) 2,033 ? 69.4°
Maximum altitude 12:05:00 69° 109° (ESE) 727 ? 69.2°
Drops below altitude 10° 12:10:00 10° 26° (NNE) 2,218 ? 68.9°
Sets 12:12:29 0° 24° (NNE) 3,191 ? 68.7°
